Location: A�t Bou Chrif
(32.7193°N, 5.2385°W)
Time: 00:46:35
(UTC+00:00)

Cosmos 1867 - Pass Details

Date: 08 August 2020
Orbit: 777 x 798 km, 65.0° (Epoch: 18 September)

Event Time Altitude Azimuth Distance (km) Brightness Sun altitude
Rises 20:53:37 0° 200° (SSW) 3,257 6.6 -19.7°
Reaches altitude 10° 20:56:01 10° 197° (SSW) 2,335 5.8 -20.1°
Maximum altitude 21:01:21 68° 115° (ESE) 846 3.4 -21.0°
Drops below altitude 10° 21:06:44 10° 33° (NNE) 2,362 6.1 -21.9°
Sets 21:09:11 0° 31° (NNE) 3,297 6.9 -22.3°
